Location: LDNL
(36.4545°S, 141.6685°E)
Time: 14:29:37
(UTC+11:00)

Courier 1B Rocket - Pass Details

Date: 31 January 2023
Orbit: 920 x 1202 km, 28.2° (Epoch: 25 March)

Event Time Altitude Azimuth Distance (km) Brightness Sun altitude
Rises 05:31:47 0° 330° (NNW) 4,060 - -14.2°
Exits shadow 05:34:54 - 344° (NNW) 3,287 7.3 -13.7°
Reaches altitude 10° 05:35:41 10° 348° (NNW) 3,122 7.2 -13.6°
Maximum altitude 05:40:33 18° 27° (NNE) 2,586 7.2 -12.8°
Drops below altitude 10° 05:45:25 10° 66° (ENE) 3,126 8.1 -12.0°
Sets 05:49:19 0° 84° (E) 4,069 9.1 -11.3°
